Погода в Пинар-дель-Рио

Куба     22°25′32″N   83°41′20″W
темп.,
°C
ветер,
м/с
пор.,
м/с
влажн.,
%
обл.,
%
осадки,
мм/ч
давл.,
гПа
погр.,
м
8 мая, сб
сб823:00+23св25874 0.6 1018113
02:00+22св22912 0.6 101723
05:00+21ссв11930 0.0 101616
08:00+23св13899 0.1 1017111
11:00+28св33587 0.0 10181271
14:00+33ссв333991 0.0 10162281
17:00+29св44516 0.3 1015953
20:00+26ссв23660 0.4 101655
9 мая, вс
вс923:00+21св22836 0.4 101834
02:00+21всв22832 0.4 101727
05:00+21всв22882 0.0 101640
08:00+22в28840 0.0 1017261
11:00+30вюв56530 0.0 10181269
14:00+33юв654273 0.0 10162529
17:00+32юв654429 0.3 10151726
20:00+27юв36620 0.5 1016175
10 мая, пн
пн1023:00+23вюв11810 0.1 101711
02:00+22в11910 0.1 101514
05:00+22в11900 0.0 101516
08:00+24в26811 0.0 1017209
11:00+30юв455314 0.0 10171485
14:00+34юв653726 0.0 10152633
17:00+32юв334348 0.2 10141992
20:00+26ю227238 1.2 101656
11 мая, вт
вт1123:00+24ю01850 0.1 101711
02:00+23всв22880 0.1 101623
05:00+22всв22900 0.0 101421
08:00+24всв25850 0.0 1016171
11:00+31вюв45521 0.0 10161500
14:00+35вюв543338 0.0 10152921
17:00+34ююв233795 0.1 10142072
20:00+27ююз346328 0.4 1015146
12 мая, ср
ср1223:00+24ююз11813 0.0 101711
02:00+23вюв11875 0.0 101611
05:00+22св11895 0.0 101512
08:00+24вюв12785 0.0 1017112
11:00+31юв45514 0.0 10171322
14:00+36юв643427 0.0 10152781
17:00+30юз345987 0.7 1014861
20:00+25ссв128441 2.9 101650